DW7013 Weather Reports


Display with metric or nautical units.
time (UTC)temp
F
wind
direction
speed
MPH
gust
MPH
rain 1hr
in
rain 24hr
in
rain mn
in
humidity
%
barometer
mb
20260509141210 66 319 0.0 0.0 0.00 0.02 0.01 54 1015.7
20260509140733 65 298 0.0 0.0 0.00 0.02 0.01 56 1015.8
20260509140227 65 273 0.0 0.0 0.00 0.02 0.01 57 1015.8
20260509135731 65 130 0.0 0.0 0.00 0.02 0.01 57 1016.0
20260509135228 64 332 0.0 5.0 0.00 0.02 0.01 58 1016.0
20260509134231 65 284 3.0 10.0 0.00 0.02 0.01 57 1016.0
20260509133223 65 321 3.0 8.0 0.00 0.02 0.01 57 1016.1
20260509132216 64 176 3.0 9.0 0.00 0.02 0.01 59 1016.2
20260509131723 64 235 2.0 9.0 0.00 0.02 0.01 60 1016.2
20260509130719 65 244 0.0 4.0 0.00 0.02 0.01 60 1016.2
20260509130243 65 245 0.0 4.0 0.00 0.02 0.01 58 1016.2
20260509125716 65 221 0.0 4.0 0.00 0.02 0.01 57 1016.2
20260509125223 65 230 0.0 6.0 0.00 0.02 0.01 56 1016.2
20260509124723 65 92 1.0 6.0 0.00 0.02 0.01 55 1016.2
20260509124217 66 17 2.0 6.0 0.00 0.02 0.01 55 1016.4
20260509123724 67 279 2.0 7.0 0.00 0.02 0.01 55 1016.4
20260509123221 66 278 1.0 7.0 0.00 0.02 0.01 58 1016.4
20260509122716 65 340 2.0 6.0 0.00 0.02 0.01 57 1016.4
20260509122216 65 307 2.0 7.0 0.00 0.02 0.01 59 1016.5
20260509121714 65 281 2.0 7.0 0.00 0.02 0.01 58 1016.5
20260509121215 64 323 2.0 7.0 0.00 0.02 0.01 60 1016.6
20260509120218 64 305 3.0 8.0 0.00 0.02 0.01 60 1016.8
20260509115718 64 302 3.0 9.0 0.00 0.02 0.01 58 1016.8
20260509115207 65 322 4.0 9.0 0.00 0.02 0.01 59 1016.8
20260509114732 65 320 4.0 9.0 0.00 0.02 0.01 59 1016.8
20260509114214 65 312 2.0 7.0 0.00 0.02 0.01 58 1016.8
20260509113716 65 301 0.0 3.0 0.00 0.02 0.01 58 1016.8
20260509113229 65 275 0.0 6.0 0.00 0.02 0.01 55 1016.8
20260509112719 65 228 1.0 6.0 0.00 0.02 0.01 54 1016.8
20260509112210 65 326 2.0 8.0 0.00 0.02 0.01 54 1016.9
20260509111725 65 14 3.0 8.0 0.00 0.02 0.01 57 1016.9
20260509111220 65 314 4.0 9.0 0.00 0.02 0.01 57 1017.0
20260509110717 65 295 4.0 9.0 0.00 0.02 0.01 55 1017.1
20260509105718 66 164 0.0 6.0 0.00 0.02 0.01 54 1017.2
20260509105220 65 17 1.0 7.0 0.00 0.02 0.01 53 1017.2
20260509104725 65 315 2.0 7.0 0.00 0.02 0.01 54 1017.1
20260509104220 65 296 2.0 7.0 0.00 0.02 0.01 56 1017.2
20260509103713 64 295 2.0 7.0 0.00 0.02 0.01 58 1017.3
20260509103217 65 287 2.0 5.0 0.00 0.02 0.01 55 1017.3
20260509102731 66 207 1.0 5.0 0.00 0.02 0.01 55 1017.3
20260509101721 65 190 1.0 6.0 0.00 0.02 0.01 52 1017.3
20260509101226 64 256 1.0 5.0 0.00 0.02 0.01 55 1017.3
20260509100735 63 234 0.0 0.0 0.00 0.02 0.01 60 1017.3
20260509100218 63 200 0.0 7.0 0.00 0.02 0.01 57 1017.4
20260509095218 64 271 2.0 6.0 0.00 0.02 0.01 55 1017.4
20260509094732 64 200 1.0 5.0 0.00 0.02 0.01 54 1017.4
20260509094225 64 207 1.0 6.0 0.00 0.02 0.01 58 1017.4
20260509093229 63 174 2.0 9.0 0.00 0.02 0.01 58 1017.5
20260509092715 64 218 3.0 9.0 0.00 0.02 0.01 57 1017.5
20260509091723 64 169 2.0 7.0 0.00 0.02 0.01 56 1017.5
20260509091219 65 172 1.0 8.0 0.00 0.02 0.01 57 1017.5
20260509090708 64 136 2.0 8.0 0.00 0.02 0.01 56 1017.5
20260509090220 64 186 2.0 8.0 0.00 0.02 0.01 56 1017.5
20260509085716 63 155 0.0 5.0 0.00 0.02 0.01 57 1017.5
20260509085214 63 182 2.0 6.0 0.00 0.02 0.01 60 1017.5
20260509084222 62 167 2.0 6.0 0.00 0.02 0.01 58 1017.7
20260509083725 62 185 2.0 6.0 0.00 0.02 0.01 60 1017.5
20260509082721 61 167 4.0 6.0 0.00 0.02 0.01 59 1017.7
20260509082224 61 180 4.0 6.0 0.00 0.02 0.01 60 1017.8
20260509081721 61 167 2.0 6.0 0.00 0.02 0.01 61 1017.8
20260509081222 60 157 2.0 5.0 0.00 0.02 0.01 64 1017.8
20260509080721 60 158 2.0 5.0 0.00 0.02 0.01 65 1017.8
20260509080216 60 166 2.0 5.0 0.00 0.02 0.01 66 1017.9
20260509075718 59 181 2.0 5.0 0.00 0.02 0.01 65 1017.9
20260509075223 59 186 2.0 5.0 0.00 0.02 0.01 65 1017.9
20260509074723 59 170 1.0 4.0 0.00 0.02 0.01 66 1017.9
20260509074226 58 173 0.0 4.0 0.00 0.02 0.01 66 1017.9
20260509073717 58 182 1.0 4.0 0.00 0.02 0.01 70 1017.9
20260509073219 58 162 1.0 4.0 0.00 0.02 0.01 67 1017.9
20260509072715 58 169 0.0 0.0 0.00 0.02 0.01 67 1018.0
20260509072219 58 169 0.0 0.0 0.00 0.02 0.01 68 1018.0
20260509071711 58 148 0.0 0.0 0.00 0.02 0.01 70 1017.9
20260509071229 57 15 0.0 0.0 0.00 0.02 0.01 74 1017.9
20260509070728 56 15 0.0 0.0 0.00 0.02 0.01 76 1017.9
20260509070223 55 15 0.0 0.0 0.00 0.02 0.01 80 1017.9
20260509065715 54 15 0.0 0.0 0.00 0.02 0.01 80 1017.9
20260509065214 53 15 0.0 0.0 0.00 0.02 0.01 86 1017.9
20260509064726 52 15 0.0 0.0 0.00 0.02 0.01 86 1017.9
20260509063219 50 15 0.0 0.0 0.00 0.02 0.01 92 1017.8
20260509062226 48 15 0.0 0.0 0.00 0.02 0.01 93 1017.8
20260509061713 47 15 0.0 0.0 0.00 0.02 0.01 93 1017.8
20260509061216 47 15 0.0 0.0 0.00 0.02 0.01 93 1017.8
20260509060728 46 15 0.0 0.0 0.00 0.02 0.01 93 1017.7
20260509055720 46 15 0.0 0.0 0.00 0.02 0.01 92 1017.5
20260509055221 45 15 0.0 0.0 0.00 0.02 0.01 92 1017.5
20260509054722 45 15 0.0 0.0 0.00 0.02 0.01 92 1017.5
20260509053719 45 15 0.0 0.0 0.00 0.02 0.01 92 1017.7
20260509053223 45 15 0.0 0.0 0.00 0.02 0.01 92 1017.5
20260509052726 45 15 0.0 0.0 0.00 0.02 0.01 91 1017.5
20260509052212 45 15 0.0 0.0 0.00 0.02 0.01 91 1017.5
20260509051749 45 15 0.0 0.0 0.00 0.02 0.01 91 1017.5
20260509050709 44 15 0.0 0.0 0.00 0.02 0.01 91 1017.4
20260509050224 45 15 0.0 0.0 0.00 0.02 0.01 91 1017.4
20260509045712 45 15 0.0 0.0 0.00 0.02 0.01 91 1017.4
20260509045216 45 15 0.0 0.0 0.00 0.02 0.01 91 1017.4
20260509044727 45 15 0.0 0.0 0.00 0.02 0.01 91 1017.3
20260509043730 45 13 0.0 0.0 0.00 0.02 0.01 91 1017.2
20260509043218 45 13 0.0 0.0 0.00 0.02 0.01 91 1017.1
20260509042714 45 13 0.0 0.0 0.00 0.02 0.01 91 1017.1
20260509042223 45 13 0.0 0.0 0.00 0.02 0.01 91 1017.1
20260509041223 45 13 0.0 0.0 0.00 0.02 0.01 91 1017.0
20260509040718 45 5 0.0 0.0 0.00 0.02 0.01 91 1017.0
20260509040224 45 5 0.0 0.0 0.00 0.02 0.01 91 1017.1
20260509035723 45 5 0.0 0.0 0.00 0.02 0.01 91 1017.0
20260509035219 45 5 0.0 0.0 0.00 0.02 0.01 91 1017.1
20260509034713 45 5 0.0 0.0 0.00 0.02 0.01 91 1017.1
20260509034231 45 5 0.0 0.0 0.00 0.02 0.01 91 1017.1
20260509033224 45 5 0.0 0.0 0.00 0.02 0.01 91 1017.2
20260509032722 45 336 0.0 0.0 0.00 0.02 0.01 91 1017.2
20260509032211 45 331 0.0 0.0 0.00 0.02 0.01 91 1017.2
20260509031722 45 331 0.0 0.0 0.00 0.02 0.01 91 1017.2
20260509031215 45 331 0.0 0.0 0.00 0.02 0.01 91 1017.3
20260509030720 45 331 0.0 0.0 0.00 0.02 0.01 91 1017.3
20260509030221 45 331 0.0 0.0 0.00 0.02 0.01 91 1017.4
20260509025727 45 350 0.0 0.0 0.01 0.02 0.01 91 1017.4
20260509025238 45 350 0.0 0.0 0.01 0.02 0.01 91 1017.4
20260509024717 45 350 0.0 0.0 0.01 0.02 0.01 91 1017.4
20260509024219 45 350 0.0 0.0 0.01 0.02 0.01 91 1017.4
20260509023724 45 98 0.0 0.0 0.01 0.02 0.01 90 1017.4
20260509022227 46 98 0.0 0.0 0.01 0.02 0.01 90 1017.4
20260509021715 46 98 0.0 0.0 0.01 0.02 0.01 90 1017.4
20260509021232 46 98 0.0 0.0 0.01 0.02 0.01 90 1017.4
20260509020708 46 98 0.0 0.0 0.01 0.02 0.01 90 1017.4
20260509020212 46 98 0.0 0.0 0.01 0.02 0.01 90 1017.3
20260509015726 46 98 0.0 0.0 0.00 0.02 0.00 90 1017.3
20260509015214 46 98 0.0 0.0 0.00 0.02 0.00 89 1017.3
20260509013721 46 98 0.0 0.0 0.00 0.02 0.00 89 1017.3
20260509013218 46 98 0.0 0.0 0.00 0.02 0.00 89 1017.4
20260509012222 46 98 0.0 0.0 0.00 0.02 0.00 88 1017.4
20260509011721 47 98 0.0 0.0 0.00 0.02 0.00 88 1017.4
20260509011221 47 98 0.0 0.0 0.00 0.02 0.00 88 1017.4
20260509010220 47 98 0.0 0.0 0.00 0.02 0.00 88 1017.4
20260509005711 47 98 0.0 0.0 0.00 0.02 0.00 88 1017.5
20260509005223 47 98 0.0 0.0 0.00 0.02 0.00 88 1017.5
20260509004717 47 98 0.0 0.0 0.00 0.02 0.00 88 1017.5
20260509004223 47 98 0.0 0.0 0.00 0.02 0.00 88 1017.7
20260509003712 47 98 0.0 0.0 0.00 0.02 0.00 88 1017.5
20260509003213 48 98 0.0 0.0 0.00 0.02 0.00 88 1017.5
20260509002724 48 98 0.0 0.0 0.00 0.02 0.00 88 1017.5
20260509002221 48 98 0.0 0.0 0.00 0.02 0.00 88 1017.5
20260509001728 48 98 0.0 0.0 0.00 0.02 0.00 88 1017.5
20260509001210 48 98 0.0 0.0 0.00 0.02 0.00 88 1017.5
20260509000718 48 98 0.0 0.0 0.00 0.02 0.00 88 1017.5
20260509000220 48 98 0.0 0.0 0.00 0.02 0.00 87 1017.5
20260508235725 48 98 0.0 0.0 0.00 0.02 0.00 88 1017.5
20260508235222 48 98 0.0 0.0 0.00 0.02 0.00 88 1017.5
20260508234709 49 98 0.0 0.0 0.00 0.02 0.00 88 1017.4
20260508233722 49 105 0.0 0.0 0.00 0.02 0.00 88 1017.7
20260508233214 49 83 0.0 0.0 0.00 0.02 0.00 88 1017.5
20260508232712 49 90 0.0 0.0 0.00 0.02 0.00 88 1017.5
20260508231728 49 90 0.0 0.0 0.00 0.02 0.00 88 1017.5
20260508231222 49 102 0.0 0.0 0.00 0.02 0.00 88 1017.5
20260508230718 49 102 0.0 0.0 0.00 0.02 0.00 88 1017.5
20260508225719 50 105 0.0 0.0 0.00 0.02 0.00 87 1017.4
20260508225225 50 101 0.0 0.0 0.00 0.02 0.00 87 1017.4
20260508224726 50 39 0.0 0.0 0.00 0.02 0.00 88 1017.4
20260508224214 50 38 0.0 0.0 0.00 0.02 0.00 88 1017.5
20260508223716 50 5 0.0 0.0 0.00 0.02 0.00 88 1017.5
20260508223216 50 50 0.0 0.0 0.00 0.02 0.00 88 1017.5
20260508222212 50 17 0.0 0.0 0.00 0.02 0.00 88 1017.5
20260508221727 51 36 0.0 0.0 0.00 0.02 0.00 87 1017.7
20260508220733 51 36 0.0 0.0 0.00 0.02 0.00 88 1017.7
20260508220224 51 36 0.0 0.0 0.00 0.02 0.02 87 1017.7
20260508215717 51 24 0.0 0.0 0.00 0.02 0.02 87 1017.7
20260508214731 51 24 0.0 0.0 0.00 0.02 0.02 86 1017.4
20260508214226 51 24 0.0 0.0 0.00 0.02 0.02 85 1017.3
20260508213718 51 24 0.0 0.0 0.00 0.02 0.02 85 1017.3
20260508212728 52 24 0.0 0.0 0.00 0.02 0.02 84 1017.2
20260508212232 52 24 0.0 0.0 0.00 0.02 0.02 84 1017.2
20260508210723 52 24 0.0 0.0 0.01 0.02 0.02 84 1017.2
20260508210221 52 20 0.0 0.0 0.01 0.02 0.02 84 1017.2
20260508205723 53 355 0.0 0.0 0.01 0.02 0.02 84 1017.1
20260508204225 53 15 0.0 3.0 0.01 0.02 0.02 85 1017.0
20260508203723 53 20 0.0 0.0 0.01 0.02 0.02 84 1016.9
20260508203225 54 17 0.0 0.0 0.01 0.02 0.02 83 1016.9
20260508202224 54 326 0.0 0.0 0.01 0.02 0.02 82 1017.0
20260508201711 54 91 0.0 0.0 0.01 0.02 0.02 82 1017.0
20260508201230 54 93 0.0 2.0 0.00 0.01 0.01 79 1017.0
20260508200715 54 98 0.0 4.0 0.00 0.01 0.01 79 1017.0
20260508195721 54 347 0.0 0.0 0.00 0.01 0.01 79 1016.7
20260508195209 54 5 0.0 0.0 0.00 0.01 0.01 79 1016.7
20260508194713 54 5 0.0 0.0 0.00 0.01 0.01 78 1016.5
20260508194229 55 64 0.0 0.0 0.00 0.01 0.01 77 1016.5
20260508193728 55 64 0.0 0.0 0.00 0.01 0.01 76 1016.5
20260508193218 55 64 0.0 0.0 0.00 0.01 0.01 76 1016.4
20260508192714 55 64 0.0 0.0 0.00 0.01 0.01 76 1016.4
20260508192217 55 64 0.0 0.0 0.00 0.01 0.01 76 1016.2
20260508191718 56 36 0.0 0.0 0.00 0.01 0.01 76 1016.1
20260508191221 56 30 0.0 0.0 0.00 0.01 0.01 77 1016.0
20260508190724 56 30 0.0 0.0 0.00 0.01 0.01 76 1016.0
20260508185716 56 30 0.0 0.0 0.00 0.01 0.01 76 1016.0
20260508184714 56 5 0.0 0.0 0.00 0.01 0.01 76 1015.9
20260508184209 57 9 0.0 0.0 0.00 0.01 0.01 75 1015.9
20260508183731 57 9 0.0 0.0 0.00 0.01 0.01 74 1015.9
20260508183209 57 0 0.0 0.0 0.00 0.01 0.01 74 1015.8
20260508182215 57 339 0.0 0.0 0.00 0.01 0.01 72 1015.7
20260508181725 57 330 0.0 0.0 0.00 0.01 0.01 72 1015.6
20260508181221 58 347 0.0 0.0 0.00 0.01 0.01 70 1015.6
20260508180721 58 339 0.0 0.0 0.00 0.01 0.01 70 1015.5
20260508180224 58 355 0.0 0.0 0.00 0.01 0.01 69 1015.4
20260508175215 59 355 0.0 0.0 0.00 0.01 0.01 67 1015.3
20260508174732 60 0 0.0 0.0 0.00 0.01 0.01 66 1015.2
20260508174231 60 0 0.0 3.0 0.00 0.01 0.01 64 1015.1
20260508173222 61 26 0.0 3.0 0.00 0.01 0.01 61 1015.0
20260508172733 62 336 0.0 0.0 0.00 0.01 0.01 60 1014.8
20260508172222 63 350 0.0 5.0 0.00 0.01 0.01 59 1014.8
20260508171712 63 355 1.0 6.0 0.00 0.01 0.01 59 1014.7
20260508171220 63 339 3.0 7.0 0.00 0.01 0.01 59 1014.8
20260508170728 63 305 3.0 7.0 0.00 0.01 0.01 58 1014.7
20260508170220 63 312 3.0 7.0 0.00 0.01 0.01 58 1014.7
20260508165736 63 307 3.0 6.0 0.00 0.01 0.01 58 1014.6
20260508165216 63 306 2.0 6.0 0.00 0.01 0.01 62 1014.6
20260508164226 63 281 2.0 8.0 0.00 0.01 0.01 62 1014.6
20260508163221 62 272 3.0 9.0 0.00 0.01 0.01 64 1014.6
20260508162713 62 298 3.0 9.0 0.00 0.01 0.01 65 1014.6
20260508162222 62 304 1.0 0.0 0.00 0.01 0.01 67 1014.6
20260508161732 61 310 0.0 5.0 0.00 0.01 0.01 70 1014.6
20260508161227 61 281 0.0 5.0 0.00 0.01 0.01 69 1014.6
20260508160719 61 327 1.0 6.0 0.00 0.01 0.01 68 1014.8
20260508160208 61 289 1.0 6.0 0.00 0.01 0.01 67 1014.7
20260508155712 61 317 1.0 6.0 0.00 0.01 0.01 67 1014.7
20260508154727 62 302 3.0 8.0 0.00 0.01 0.01 65 1014.8
20260508154214 62 299 3.0 8.0 0.00 0.01 0.01 64 1014.7
20260508153711 63 281 5.0 8.0 0.00 0.01 0.01 63 1014.7
20260508153224 63 313 4.0 8.0 0.00 0.01 0.01 64 1014.7
20260508152725 63 307 3.0 7.0 0.00 0.01 0.01 64 1014.6
20260508151715 61 296 2.0 7.0 0.00 0.01 0.01 67 1014.8
20260508151227 61 287 1.0 7.0 0.00 0.01 0.01 67 1014.8
20260508150721 61 335 1.0 7.0 0.00 0.01 0.01 68 1014.8
20260508150223 61 317 2.0 7.0 0.00 0.01 0.01 67 1014.8
20260508145722 61 311 3.0 7.0 0.00 0.01 0.01 67 1015.0
20260508145214 61 326 2.0 6.0 0.00 0.01 0.01 67 1015.0
20260508144219 61 306 1.0 6.0 0.00 0.01 0.01 66 1015.0
20260508143732 61 300 2.0 9.0 0.00 0.01 0.01 66 1015.1
20260508143215 61 309 3.0 9.0 0.00 0.01 0.01 66 1015.1
20260508142729 61 329 3.0 9.0 0.00 0.01 0.01 65 1015.1
20260508142210 62 331 3.0 8.0 0.00 0.01 0.01 64 1015.1